Weather History for Triuchirapalli, India

Change the Weather History Date:

Tuesday, April 23, 2013

  Actual Average Record
Temperature  
Mean Temperature 90 °F -  
Max Temperature 102 °F 95 °F 104 °F (1998)
Min Temperature 79 °F 81 °F 77 °F (2006)
Cooling Degree Days 26    
Growing Degree Days 40 (Base 50)    
Moisture  
Dew Point 72 °F    
Average Humidity 54    
Maximum Humidity 74    
Minimum Humidity 22    
Precipitation  
Precipitation 0.00 in - - ()
Sea Level Pressure  
Sea Level Pressure 29.81 in    
Wind  
Wind Speed 5 mph ()    
Max Wind Speed 15 mph    
Max Gust Speed -    
Visibility 3.8 miles    
Events      
Averages and records for this station are not official NWS values.
T = Trace of Precipitation, MM = Missing Value Source: Averaged Metar Reports

Daily Weather History Graph

Daily Weather History Graph

Search for Another Location

Airport:

Trip Planner

Search our weather history database for the weather conditions in past years. The results will help you decide how hot, cold, wet, or windy it might be!

Date:

Astronomy

Apr. 23, 2013 Rise Set
Actual Time 6:00 AM IST 6:26 PM IST
Civil Twilight 5:38 AM IST 6:48 PM IST
Nautical Twilight 5:13 AM IST 7:13 PM IST
Astronomical Twilight 4:48 AM IST 7:39 PM IST
Moon 4:13 PM IST (4/23) 3:43 AM IST (4/23)
Length of Visible Light 13h 09m
Length of Day
12h 26m
Waxing Gibbous, 91% of the Moon is Illuminated
Apr 23
Waxing Gibbous
Apr 26
Full
May 2
Last Quarter
May 10
New
May 18
First Quarter

Hourly Weather History & Observations

Time (IST) Temp. Heat Index Dew Point Humidity Pressure Visibility Wind Dir Wind Speed Gust Speed Precip Events Conditions
12:40 AM 86.0 °F 93.4 °F 73.4 °F 66% 29.80 in 3.1 mi Calm Calm - N/A   Haze
1:10 AM 84.2 °F 90.9 °F 73.4 °F 70% 29.80 in 3.1 mi East 3.5 mph - N/A   Haze
1:40 AM 84.2 °F 90.9 °F 73.4 °F 70% 29.80 in 3.1 mi ESE 2.3 mph - N/A   Haze
2:10 AM 84.2 °F 90.9 °F 73.4 °F 70% 29.80 in 3.1 mi SSE 2.3 mph - N/A   Haze
2:30 AM 83 °F - 70 °F 56% 29.78 in 1 mi SE 3.5 mph - -   Haze
2:40 AM 82.4 °F 86.3 °F 69.8 °F 66% 29.77 in 3.1 mi SE 3.5 mph - N/A   Haze
3:10 AM 82.4 °F 86.3 °F 69.8 °F 66% 29.77 in 3.1 mi SE 3.5 mph - N/A   Haze
3:40 AM 82.4 °F 86.3 °F 69.8 °F 66% 29.77 in 3.1 mi SSE 3.5 mph - N/A   Haze
4:10 AM 82.4 °F 86.3 °F 69.8 °F 66% 29.77 in 2.5 mi SSE 3.5 mph - N/A   Haze
4:40 AM 80.6 °F 83.9 °F 69.8 °F 70% 29.77 in 2.5 mi SSE 3.5 mph - N/A   Haze
5:10 AM 80.6 °F 83.9 °F 69.8 °F 70% 29.80 in 2.5 mi SSE 4.6 mph - N/A   Haze
5:30 AM 81 °F - 71 °F 66% 29.80 in 1 mi South 3.5 mph - -   Haze
5:40 AM 80.6 °F 84.6 °F 71.6 °F 74% 29.80 in 2.5 mi SSE 3.5 mph - N/A   Haze
6:40 AM 82.4 °F 87.2 °F 71.6 °F 70% 29.83 in 1.9 mi South 2.3 mph - N/A   Haze
7:10 AM 84.2 °F 89.6 °F 71.6 °F 66% 29.86 in 1.9 mi South 4.6 mph - N/A   Haze
7:40 AM 86.0 °F 93.4 °F 73.4 °F 66% 29.89 in 1.9 mi South 6.9 mph - N/A   Haze
8:10 AM 87.8 °F 95.6 °F 73.4 °F 62% 29.89 in 2.5 mi SSW 10.4 mph - N/A   Haze
8:30 AM - - 76 °F % 29.87 in 2 mi NNE 11.5 mph - -   Haze
8:40 AM 87.8 °F 97.6 °F 75.2 °F 66% 29.89 in 2.5 mi SSW 10.4 mph - N/A   Haze
9:10 AM 89.6 °F 99.8 °F 75.2 °F 62% 29.89 in 2.5 mi South 6.9 mph - N/A   Haze
10:10 AM 95.0 °F 104.5 °F 73.4 °F 49% 29.89 in 3.1 mi SE 6.9 mph - N/A   Haze
10:40 AM 95.0 °F 104.5 °F 73.4 °F 49% 29.89 in 3.7 mi SSW 6.9 mph - N/A   Haze
11:10 AM 98.6 °F 109.2 °F 73.4 °F 44% 29.86 in 5.0 mi SW 2.3 mph - N/A   Scattered Clouds
11:30 AM 99 °F - 69 °F 28% 29.86 in 2 mi SW 3.5 mph - -   Haze
11:40 AM 98.6 °F 107.7 °F 71.6 °F 42% 29.86 in 5.0 mi SE 3.5 mph - N/A   Scattered Clouds
12:10 PM 100.4 °F 109.3 °F 71.6 °F 39% 29.86 in 5.0 mi WSW 4.6 mph - N/A   Scattered Clouds
12:40 PM 102.2 °F 110.0 °F 69.8 °F 35% 29.83 in 6.2 mi South 2.3 mph - N/A   Scattered Clouds
1:10 PM 104.0 °F 112.2 °F 69.8 °F 33% 29.53 in 6.2 mi WSW 5.8 mph - N/A   Scattered Clouds
1:40 PM 104.0 °F 112.2 °F 69.8 °F 33% 29.77 in 6.2 mi WSW 2.3 mph - N/A   Scattered Clouds
2:10 PM 104.0 °F 112.2 °F 69.8 °F 33% 29.77 in 6.2 mi South 3.5 mph - N/A   Partly Cloudy
2:30 PM 103 °F - 67 °F 22% 29.75 in 6 mi SSE 4.6 mph - -   Mostly Cloudy
2:40 PM 104.0 °F 112.2 °F 69.8 °F 33% 29.77 in 6.2 mi SE 6.9 mph - N/A   Partly Cloudy
3:10 PM 104.0 °F 112.2 °F 69.8 °F 33% 29.74 in 6.2 mi South 4.6 mph - N/A   Partly Cloudy
3:40 PM 104.0 °F 110.5 °F 68.0 °F 31% 29.74 in 6.2 mi South 4.6 mph - N/A   Partly Cloudy
4:10 PM 102.2 °F 110.0 °F 69.8 °F 35% 29.74 in 6.2 mi SSE 8.1 mph - N/A   Partly Cloudy
4:40 PM 102.2 °F 110.0 °F 69.8 °F 35% 29.74 in 6.2 mi ESE 4.6 mph - N/A   Partly Cloudy
5:10 PM 102.2 °F 110.0 °F 69.8 °F 35% 29.74 in 6.2 mi SSE 15.0 mph - N/A   Partly Cloudy
5:30 PM 96 °F - 72 °F 37% 29.74 in 6 mi SE 13.8 mph - -   Partly Cloudy
5:40 PM 96.8 °F 107.3 °F 73.4 °F 47% 29.74 in 6.2 mi SE 15.0 mph - N/A   Partly Cloudy
6:10 PM 95.0 °F 104.5 °F 73.4 °F 49% 29.74 in 5.0 mi SE 15.0 mph - N/A   Partly Cloudy
6:40 PM 93.2 °F 102.4 °F 73.4 °F 52% 29.80 in 3.7 mi SSE 10.4 mph - N/A   Partly Cloudy
7:10 PM 91.4 °F 102.5 °F 75.2 °F 59% 29.80 in 3.7 mi SSE 12.7 mph - N/A   Partly Cloudy
7:40 PM 89.6 °F 99.8 °F 75.2 °F 62% 29.83 in 3.7 mi SSE 12.7 mph - N/A   Partly Cloudy
8:10 PM 87.8 °F 97.6 °F 75.2 °F 66% 29.83 in 3.7 mi SE 13.8 mph - N/A   Partly Cloudy
8:30 PM 89 °F - 71 °F 47% 29.82 in 2 mi SE 11.5 mph - -   Partly Cloudy
8:40 PM 89.6 °F 98.2 °F 73.4 °F 59% 29.83 in 3.7 mi SSE 6.9 mph - N/A   Partly Cloudy
9:10 PM 87.8 °F 95.6 °F 73.4 °F 62% 29.86 in 3.7 mi SSE 12.7 mph - N/A   Partly Cloudy
9:40 PM 87.8 °F 95.6 °F 73.4 °F 62% 29.86 in 3.7 mi SE 11.5 mph - N/A   Partly Cloudy
10:10 PM 87.8 °F 97.6 °F 75.2 °F 66% 29.86 in 3.7 mi SE 9.2 mph - N/A   Partly Cloudy
10:40 PM 86.0 °F 95.1 °F 75.2 °F 70% 29.86 in 3.7 mi SSE 4.6 mph - N/A   Partly Cloudy
11:10 PM 86.0 °F 93.4 °F 73.4 °F 66% 29.86 in 3.7 mi SSE 4.6 mph - N/A   Partly Cloudy
11:30 PM 86 °F - 76 °F 65% 29.86 in 2 mi SE 3.5 mph - -   Haze
11:40 PM 86.0 °F 93.4 °F 73.4 °F 66% 29.86 in 3.7 mi South 3.5 mph - N/A   Partly Cloudy